Regional Weather Roundup
Issued by NWS

Home | Current Version | Previous Version | Text Only | Print | Product List | Glossary Off
Versions: 1 2 3 4 5 6 7 8 9 10 11 12 13 14 15 16 17 18 19 20 21 22 23 24 25 26 27 28 29 30 31 32 33 34 35 36 37 38 39 40 41 42 43 44 45 46 47 48 49 50

000
ASUS43 KBIS 210210
RWRND

NORTH DAKOTA REGIONAL WEATHER ROUNDUP
NATIONAL WEATHER SERVICE BISMARCK ND
800 PM CST SAT DEC 20 2014

NOTE: "FAIR" INDICATES FEW OR NO CLOUDS BELOW 12,000 FEET WITH NO
SIGNIFICANT WEATHER AND/OR OBSTRUCTIONS TO VISIBILITY.


NDZ001>003-009>011-017-210300-
NORTHWEST NORTH DAKOTA

CITY           SKY/WX    TMP DP  RH WIND       PRES   REMARKS
WILLISTON      CLEAR     31  24  75 SW7       29.75S
MINOT          CLOUDY    28  26  92 SW8       29.75S WCI  20
MINOT AFB      CLOUDY    24  24 100 S6        29.74F WCI  17
$$

NDZ018>021-031>035-040>046-210300-
SOUTHWEST NORTH DAKOTA

CITY           SKY/WX    TMP DP  RH WIND       PRES   REMARKS
BISMARCK       CLEAR     22  21  96 SE5       29.82S WCI  16
DICKINSON      MOCLDY    31  24  75 SW7       29.77F
GARRISON         N/A     28  26  92 CALM      29.76F
HETTINGER ARPT PTCLDY    28  23  81 CALM      29.82F
$$

NDZ004>008-012>016-024-026-027-054-210300-
NORTHEAST NORTH DAKOTA

CITY           SKY/WX    TMP DP  RH WIND       PRES   REMARKS
GRAND FORKS    LGT SNOW  29  28  96 S13       29.89F FOG     WCI  19
GRND FRKS AFB  FLURRIES  28  28 100 S13G21    29.88F WCI  18
DEVILS LAKE    CLOUDY    27  21  80 S10       29.80S WCI  17
$$

NDZ022-023-025-028>030-036>039-047>053-210300-
SOUTHEAST NORTH DAKOTA

CITY           SKY/WX    TMP DP  RH WIND       PRES   REMARKS
FARGO          CLOUDY    33  29  85 S14G28    29.92F FOG
JAMESTOWN      CLOUDY    28  25  88 S14       29.83F FOG     WCI  17
$$



USA.gov is the U.S. government's official web portal to all federal, state and local government web resources and services.